Year,Month,Day,Hour,Minute,Value (Times are PST for temperature in C)
2018,11,14,00,00,7.40
2018,11,14,00,01,7.40
2018,11,14,00,02,7.40
2018,11,14,00,03,7.40
2018,11,14,00,04,7.40
2018,11,14,00,05,7.40
2018,11,14,00,06,7.40
2018,11,14,00,07,7.40
2018,11,14,00,08,7.40
2018,11,14,00,09,7.40
2018,11,14,00,10,7.40
2018,11,14,00,11,7.40
2018,11,14,00,12,7.40
2018,11,14,00,13,7.40
2018,11,14,00,14,7.40
2018,11,14,00,15,7.40
2018,11,14,00,16,7.40
2018,11,14,00,17,7.40
2018,11,14,00,18,7.40
2018,11,14,00,19,7.40
2018,11,14,00,20,7.40
2018,11,14,00,21,7.40
2018,11,14,00,22,7.40
2018,11,14,00,23,7.40
2018,11,14,00,24,7.40
2018,11,14,00,25,7.40
2018,11,14,00,26,7.40
2018,11,14,00,27,7.40
2018,11,14,00,28,7.40
2018,11,14,00,29,7.40
2018,11,14,00,30,7.40
2018,11,14,00,31,7.40
2018,11,14,00,32,7.40
2018,11,14,00,33,7.40
2018,11,14,00,34,7.40
2018,11,14,00,35,7.40
2018,11,14,00,36,7.40
2018,11,14,00,37,7.40
2018,11,14,00,38,7.40
2018,11,14,00,39,7.40
2018,11,14,00,40,7.40
2018,11,14,00,41,7.40
2018,11,14,00,42,7.40
2018,11,14,00,43,7.40
2018,11,14,00,44,7.40
2018,11,14,00,45,7.40
2018,11,14,00,46,7.40
2018,11,14,00,47,7.40
2018,11,14,00,48,7.40
2018,11,14,00,49,7.40
2018,11,14,00,50,7.40
2018,11,14,00,51,7.40
2018,11,14,00,52,7.40
2018,11,14,00,53,7.40
2018,11,14,00,54,7.40
2018,11,14,00,55,7.40
2018,11,14,00,56,7.40
2018,11,14,00,57,7.40
2018,11,14,00,58,7.40
2018,11,14,00,59,7.40
2018,11,14,01,00,7.40
2018,11,14,01,01,7.40
2018,11,14,01,02,7.40
2018,11,14,01,03,7.40
2018,11,14,01,04,7.40
2018,11,14,01,05,7.40
2018,11,14,01,06,7.40
2018,11,14,01,07,7.40
2018,11,14,01,08,7.40
2018,11,14,01,09,7.40
2018,11,14,01,10,7.40
2018,11,14,01,11,7.40
2018,11,14,01,12,7.40
2018,11,14,01,13,7.40
2018,11,14,01,14,7.40
2018,11,14,01,15,7.40
2018,11,14,01,16,7.40
2018,11,14,01,17,7.40
2018,11,14,01,18,7.40
2018,11,14,01,19,7.40
2018,11,14,01,20,7.50
2018,11,14,01,21,7.50
2018,11,14,01,22,7.40
2018,11,14,01,23,7.50
2018,11,14,01,24,7.50
2018,11,14,01,25,7.50
2018,11,14,01,26,7.50
2018,11,14,01,27,7.50
2018,11,14,01,28,7.50
2018,11,14,01,29,7.50
2018,11,14,01,30,7.50
2018,11,14,01,31,7.50
2018,11,14,01,32,7.50
2018,11,14,01,33,7.50
2018,11,14,01,34,7.50
2018,11,14,01,35,7.50
2018,11,14,01,36,7.40
2018,11,14,01,37,7.40
2018,11,14,01,38,7.40
2018,11,14,01,39,7.40
2018,11,14,01,40,7.40
2018,11,14,01,41,7.40
2018,11,14,01,42,7.40
2018,11,14,01,43,7.40
2018,11,14,01,44,7.40
2018,11,14,01,45,7.40
2018,11,14,01,46,7.40
2018,11,14,01,47,7.40
2018,11,14,01,48,7.40
2018,11,14,01,49,7.40
2018,11,14,01,50,7.40
2018,11,14,01,51,7.40
2018,11,14,01,52,7.40
2018,11,14,01,53,7.40
2018,11,14,01,54,7.50
2018,11,14,01,55,7.40
2018,11,14,01,56,7.40
2018,11,14,01,57,7.50
2018,11,14,01,58,7.40
2018,11,14,01,59,7.40
2018,11,14,02,00,7.40
2018,11,14,02,01,7.40
2018,11,14,02,02,7.40
2018,11,14,02,03,7.40
2018,11,14,02,04,7.40
2018,11,14,02,05,7.40
2018,11,14,02,06,7.40
2018,11,14,02,07,7.40
2018,11,14,02,08,7.40
2018,11,14,02,09,7.40
2018,11,14,02,10,7.40
2018,11,14,02,11,7.40
2018,11,14,02,12,7.40
2018,11,14,02,13,7.40
2018,11,14,02,14,7.40
2018,11,14,02,15,7.40
2018,11,14,02,16,7.40
2018,11,14,02,17,7.40
2018,11,14,02,18,7.40
2018,11,14,02,19,7.40
2018,11,14,02,20,7.40
2018,11,14,02,21,7.40
2018,11,14,02,22,7.40
2018,11,14,02,23,7.40
2018,11,14,02,24,7.40
2018,11,14,02,25,7.40
2018,11,14,02,26,7.40
2018,11,14,02,27,7.40
2018,11,14,02,28,7.40
2018,11,14,02,29,7.40
2018,11,14,02,30,7.40
2018,11,14,02,31,7.40
2018,11,14,02,32,7.40
2018,11,14,02,33,7.40
2018,11,14,02,34,7.40
2018,11,14,02,35,7.40
2018,11,14,02,36,7.40
2018,11,14,02,37,7.40
2018,11,14,02,38,7.40
2018,11,14,02,39,7.40
2018,11,14,02,40,7.40
2018,11,14,02,41,7.40
2018,11,14,02,42,7.40
2018,11,14,02,43,7.40
2018,11,14,02,44,7.40
2018,11,14,02,45,7.40
2018,11,14,02,46,7.40
2018,11,14,02,47,7.40
2018,11,14,02,48,7.40
2018,11,14,02,49,7.40
2018,11,14,02,50,7.40
2018,11,14,02,51,7.40
2018,11,14,02,52,7.50
2018,11,14,02,53,7.40
2018,11,14,02,54,7.50
2018,11,14,02,55,7.50
2018,11,14,02,56,7.50
2018,11,14,02,57,7.50
2018,11,14,02,58,7.50
2018,11,14,02,59,7.50
2018,11,14,03,00,7.50
2018,11,14,03,01,7.50
2018,11,14,03,02,7.50
2018,11,14,03,03,7.50
2018,11,14,03,04,7.50
2018,11,14,03,05,7.50
2018,11,14,03,06,7.50
2018,11,14,03,07,7.50
2018,11,14,03,08,7.50
2018,11,14,03,09,7.50
2018,11,14,03,10,7.50
2018,11,14,03,11,7.50
2018,11,14,03,12,7.50
2018,11,14,03,13,7.50
2018,11,14,03,14,7.50
2018,11,14,03,15,7.50
2018,11,14,03,16,7.50
2018,11,14,03,17,7.50
2018,11,14,03,18,7.50
2018,11,14,03,19,7.50
2018,11,14,03,20,7.50
2018,11,14,03,21,7.50
2018,11,14,03,22,7.50
2018,11,14,03,23,7.50
2018,11,14,03,24,7.50
2018,11,14,03,25,7.50
2018,11,14,03,26,7.50
2018,11,14,03,27,7.50
2018,11,14,03,28,7.50
2018,11,14,03,29,7.50
2018,11,14,03,30,7.50
2018,11,14,03,31,7.50
2018,11,14,03,32,7.50
2018,11,14,03,33,7.50
2018,11,14,03,34,7.50
2018,11,14,03,35,7.50
2018,11,14,03,36,7.50
2018,11,14,03,37,7.60
2018,11,14,03,38,7.50
2018,11,14,03,39,7.50
2018,11,14,03,40,7.60
2018,11,14,03,41,7.50
2018,11,14,03,42,7.60
2018,11,14,03,43,7.60
2018,11,14,03,44,7.60
2018,11,14,03,45,7.60
2018,11,14,03,46,7.60
2018,11,14,03,47,7.60
2018,11,14,03,48,7.60
2018,11,14,03,49,7.60
2018,11,14,03,50,7.60
2018,11,14,03,51,7.60
2018,11,14,03,52,7.60
2018,11,14,03,53,7.60
2018,11,14,03,54,7.60
2018,11,14,03,55,7.60
2018,11,14,03,56,7.60
2018,11,14,03,57,7.60
2018,11,14,03,58,7.60
2018,11,14,03,59,7.60
2018,11,14,04,00,7.60
2018,11,14,04,01,7.60
2018,11,14,04,02,7.60
2018,11,14,04,03,7.60
2018,11,14,04,04,7.60
2018,11,14,04,05,7.60
2018,11,14,04,06,7.60
2018,11,14,04,07,7.60
2018,11,14,04,08,7.60
2018,11,14,04,09,7.60
2018,11,14,04,10,7.60
2018,11,14,04,11,7.60
2018,11,14,04,12,7.60
2018,11,14,04,13,7.60
2018,11,14,04,14,7.60
2018,11,14,04,15,7.60
2018,11,14,04,16,7.60
2018,11,14,04,17,7.60
2018,11,14,04,18,7.60
2018,11,14,04,19,7.60
2018,11,14,04,20,7.60
2018,11,14,04,21,7.60
2018,11,14,04,22,7.60
2018,11,14,04,23,7.60
2018,11,14,04,24,7.60
2018,11,14,04,25,7.60
2018,11,14,04,26,7.60
2018,11,14,04,27,7.60
2018,11,14,04,28,7.60
2018,11,14,04,29,7.60
2018,11,14,04,30,7.60
2018,11,14,04,31,7.60
2018,11,14,04,32,7.60
2018,11,14,04,33,7.60
2018,11,14,04,34,7.60
2018,11,14,04,35,7.60
2018,11,14,04,36,7.60
2018,11,14,04,37,7.60
2018,11,14,04,38,7.60
2018,11,14,04,39,7.60
2018,11,14,04,40,7.60
2018,11,14,04,41,7.60
2018,11,14,04,42,7.60
2018,11,14,04,43,7.60
2018,11,14,04,44,7.60
2018,11,14,04,45,7.60
2018,11,14,04,46,7.60
2018,11,14,04,47,7.60
2018,11,14,04,48,7.60
2018,11,14,04,49,7.60
2018,11,14,04,50,7.60
2018,11,14,04,51,7.60
2018,11,14,04,52,7.60
2018,11,14,04,53,7.60
2018,11,14,04,54,7.60
2018,11,14,04,55,7.60
2018,11,14,04,56,7.60
2018,11,14,04,57,7.60
2018,11,14,04,58,7.60
2018,11,14,04,59,7.60
2018,11,14,05,00,7.60
2018,11,14,05,01,7.60
2018,11,14,05,02,7.60
2018,11,14,05,03,7.60
2018,11,14,05,04,7.60
2018,11,14,05,05,7.60
2018,11,14,05,06,7.60
2018,11,14,05,07,7.60
2018,11,14,05,08,7.60
2018,11,14,05,09,7.60
2018,11,14,05,10,7.60
2018,11,14,05,11,7.60
2018,11,14,05,12,7.60
2018,11,14,05,13,7.60
2018,11,14,05,14,7.50
2018,11,14,05,15,7.60
2018,11,14,05,16,7.50
2018,11,14,05,17,7.50
2018,11,14,05,18,7.50
2018,11,14,05,19,7.50
2018,11,14,05,20,7.50
2018,11,14,05,21,7.50
2018,11,14,05,22,7.50
2018,11,14,05,23,7.50
2018,11,14,05,24,7.50
2018,11,14,05,25,7.50
2018,11,14,05,26,7.50
2018,11,14,05,27,7.50
2018,11,14,05,28,7.50
2018,11,14,05,29,7.50
2018,11,14,05,30,7.50
2018,11,14,05,31,7.50
2018,11,14,05,32,7.50
2018,11,14,05,33,7.50
2018,11,14,05,34,7.50
2018,11,14,05,35,7.60
2018,11,14,05,36,7.50
2018,11,14,05,37,7.50
2018,11,14,05,38,7.60
2018,11,14,05,39,7.60
2018,11,14,05,40,7.60
2018,11,14,05,41,7.60
2018,11,14,05,42,7.60
2018,11,14,05,43,7.60
2018,11,14,05,44,7.60
2018,11,14,05,45,7.60
2018,11,14,05,46,7.50
2018,11,14,05,47,7.60
2018,11,14,05,48,7.60
2018,11,14,05,49,7.60
2018,11,14,05,50,7.60
2018,11,14,05,51,7.60
2018,11,14,05,52,7.60
2018,11,14,05,53,7.60
2018,11,14,05,54,7.60
2018,11,14,05,55,7.60
2018,11,14,05,56,7.60
2018,11,14,05,57,7.60
2018,11,14,05,58,7.60
2018,11,14,05,59,7.60
2018,11,14,06,00,7.60
2018,11,14,06,01,7.60
2018,11,14,06,02,7.60
2018,11,14,06,03,7.60
2018,11,14,06,04,7.60
2018,11,14,06,05,7.60
2018,11,14,06,06,7.60
2018,11,14,06,07,7.60
2018,11,14,06,08,7.60
2018,11,14,06,09,7.60
2018,11,14,06,10,7.60
2018,11,14,06,11,7.60
2018,11,14,06,12,7.60
2018,11,14,06,13,7.60
2018,11,14,06,14,7.60
2018,11,14,06,15,7.60
2018,11,14,06,16,7.60
2018,11,14,06,17,7.60
2018,11,14,06,18,7.60
2018,11,14,06,19,7.60
2018,11,14,06,20,7.60
2018,11,14,06,21,7.60
2018,11,14,06,22,7.60
2018,11,14,06,23,7.60
2018,11,14,06,24,7.60
2018,11,14,06,25,7.60
2018,11,14,06,26,7.60
2018,11,14,06,27,7.60
2018,11,14,06,28,7.60
2018,11,14,06,29,7.60
2018,11,14,06,30,7.60
2018,11,14,06,31,7.60
2018,11,14,06,32,7.60
2018,11,14,06,33,7.60
2018,11,14,06,34,7.60
2018,11,14,06,35,7.60
2018,11,14,06,36,7.60
2018,11,14,06,37,7.60
2018,11,14,06,38,7.60
2018,11,14,06,39,7.60
2018,11,14,06,40,7.60
2018,11,14,06,41,7.60
2018,11,14,06,42,7.60
2018,11,14,06,43,7.60
2018,11,14,06,44,7.60
2018,11,14,06,45,7.60
2018,11,14,06,46,7.60
2018,11,14,06,47,7.60
2018,11,14,06,48,7.60
2018,11,14,06,49,7.60
2018,11,14,06,50,7.60
2018,11,14,06,51,7.60
2018,11,14,06,52,7.60
2018,11,14,06,53,7.60
2018,11,14,06,54,7.60
2018,11,14,06,55,7.60
2018,11,14,06,56,7.60
2018,11,14,06,57,7.60
2018,11,14,06,58,7.60
2018,11,14,06,59,7.60
2018,11,14,07,00,7.60
2018,11,14,07,01,7.60
2018,11,14,07,02,7.60
2018,11,14,07,03,7.60
2018,11,14,07,04,7.60
2018,11,14,07,05,7.60
2018,11,14,07,06,7.60
2018,11,14,07,07,7.60
2018,11,14,07,08,7.60
2018,11,14,07,09,7.60
2018,11,14,07,10,7.60
2018,11,14,07,11,7.60
2018,11,14,07,12,7.60
2018,11,14,07,13,7.60
2018,11,14,07,14,7.60
2018,11,14,07,15,7.60
2018,11,14,07,16,7.60
2018,11,14,07,17,7.60
2018,11,14,07,18,7.60
2018,11,14,07,19,7.60
2018,11,14,07,20,7.60
2018,11,14,07,21,7.60
2018,11,14,07,22,7.60
2018,11,14,07,23,7.70
2018,11,14,07,24,7.70
2018,11,14,07,25,7.70
2018,11,14,07,26,7.70
2018,11,14,07,27,7.70
2018,11,14,07,28,7.70
2018,11,14,07,29,7.70
2018,11,14,07,30,7.70
2018,11,14,07,31,7.70
2018,11,14,07,32,7.70
2018,11,14,07,33,7.70
2018,11,14,07,34,7.70
2018,11,14,07,35,7.70
2018,11,14,07,36,7.70
2018,11,14,07,37,7.80
2018,11,14,07,38,7.80
2018,11,14,07,39,7.80
2018,11,14,07,40,7.80
2018,11,14,07,41,7.80
2018,11,14,07,42,7.80
2018,11,14,07,43,7.80
2018,11,14,07,44,7.80
2018,11,14,07,45,7.80
2018,11,14,07,46,7.80
2018,11,14,07,47,7.90
2018,11,14,07,48,7.90
2018,11,14,07,49,7.90
2018,11,14,07,50,7.90
2018,11,14,07,51,7.90
2018,11,14,07,52,8.00
2018,11,14,07,53,8.10
2018,11,14,07,54,8.20
2018,11,14,07,55,8.30
2018,11,14,07,56,8.30
2018,11,14,07,57,8.40
2018,11,14,07,58,8.50
2018,11,14,07,59,8.50
2018,11,14,08,00,8.60
2018,11,14,08,01,8.70
2018,11,14,08,02,8.70
2018,11,14,08,03,8.70
2018,11,14,08,04,8.70
2018,11,14,08,05,8.80
2018,11,14,08,06,8.80
2018,11,14,08,07,8.90
2018,11,14,08,08,8.90
2018,11,14,08,09,9.00
2018,11,14,08,10,9.10
2018,11,14,08,11,9.10
2018,11,14,08,12,9.20
2018,11,14,08,13,9.20
2018,11,14,08,14,9.30
2018,11,14,08,15,9.30
2018,11,14,08,16,9.40
2018,11,14,08,17,9.40
2018,11,14,08,18,9.40
2018,11,14,08,19,9.50
2018,11,14,08,20,9.50
2018,11,14,08,21,9.60
2018,11,14,08,22,9.60
2018,11,14,08,23,9.60
2018,11,14,08,24,9.70
2018,11,14,08,25,9.70
2018,11,14,08,26,9.70
2018,11,14,08,27,9.70
2018,11,14,08,28,9.80
2018,11,14,08,29,9.80
2018,11,14,08,30,9.80
2018,11,14,08,31,9.90
2018,11,14,08,32,9.90
2018,11,14,08,33,9.90
2018,11,14,08,34,9.90
2018,11,14,08,35,9.90
2018,11,14,08,36,10.00
2018,11,14,08,37,10.00
2018,11,14,08,38,10.00
2018,11,14,08,39,10.00
2018,11,14,08,40,10.10
2018,11,14,08,41,10.10
2018,11,14,08,42,10.10
2018,11,14,08,43,10.10
2018,11,14,08,44,10.20
2018,11,14,08,45,10.20
2018,11,14,08,46,10.20
2018,11,14,08,47,10.20
2018,11,14,08,48,10.30
2018,11,14,08,49,10.30
2018,11,14,08,50,10.30
2018,11,14,08,51,10.30
2018,11,14,08,52,10.30
2018,11,14,08,53,10.40
2018,11,14,08,54,10.50
2018,11,14,08,55,10.50
2018,11,14,08,56,10.60
2018,11,14,08,57,10.60
2018,11,14,08,58,10.70
2018,11,14,08,59,10.70
2018,11,14,09,00,10.70
2018,11,14,09,01,10.80
2018,11,14,09,02,10.90
2018,11,14,09,03,10.90
2018,11,14,09,04,11.00
2018,11,14,09,05,11.00
2018,11,14,09,06,11.10
2018,11,14,09,07,11.20
2018,11,14,09,08,11.20
2018,11,14,09,09,11.30
2018,11,14,09,10,11.30
2018,11,14,09,11,11.40
2018,11,14,09,12,11.40
2018,11,14,09,13,11.50
2018,11,14,09,14,11.50
2018,11,14,09,15,11.60
2018,11,14,09,16,11.60
2018,11,14,09,17,11.60
2018,11,14,09,18,11.70
2018,11,14,09,19,11.70
2018,11,14,09,20,11.70
2018,11,14,09,21,11.70
2018,11,14,09,22,11.70
2018,11,14,09,23,11.80
2018,11,14,09,24,11.80
2018,11,14,09,25,11.80
2018,11,14,09,26,11.80
2018,11,14,09,27,11.80
2018,11,14,09,28,11.90
2018,11,14,09,29,11.90
2018,11,14,09,30,11.90
2018,11,14,09,31,11.90
2018,11,14,09,32,11.90
2018,11,14,09,33,11.90
2018,11,14,09,34,12.00
2018,11,14,09,35,12.00
2018,11,14,09,36,12.00
2018,11,14,09,37,12.10
2018,11,14,09,38,12.10
2018,11,14,09,39,12.10
2018,11,14,09,40,12.10
2018,11,14,09,41,12.10
2018,11,14,09,42,12.10
2018,11,14,09,43,12.10
2018,11,14,09,44,12.10
2018,11,14,09,45,12.10
2018,11,14,09,46,12.10
2018,11,14,09,47,12.10
2018,11,14,09,48,12.10
2018,11,14,09,49,12.10
2018,11,14,09,50,12.10
2018,11,14,09,51,12.10
2018,11,14,09,52,12.10
2018,11,14,09,53,12.20
2018,11,14,09,54,12.20
2018,11,14,09,55,12.10
2018,11,14,09,56,12.10
2018,11,14,09,57,12.20
2018,11,14,09,58,12.20
2018,11,14,09,59,12.20
2018,11,14,10,00,12.20
2018,11,14,10,01,12.20
2018,11,14,10,02,12.30
2018,11,14,10,03,12.30
2018,11,14,10,04,12.30
2018,11,14,10,05,12.30
2018,11,14,10,06,12.30
2018,11,14,10,07,12.30
2018,11,14,10,08,12.30
2018,11,14,10,09,12.30
2018,11,14,10,10,12.30
2018,11,14,10,11,12.30
2018,11,14,10,12,12.30
2018,11,14,10,13,12.20
2018,11,14,10,14,12.20
2018,11,14,10,15,12.20
2018,11,14,10,16,12.20
2018,11,14,10,17,12.20
2018,11,14,10,18,12.20
2018,11,14,10,19,12.20
2018,11,14,10,20,12.20
2018,11,14,10,21,12.20
2018,11,14,10,22,12.20
2018,11,14,10,23,12.20
2018,11,14,10,24,12.20
2018,11,14,10,25,12.20
2018,11,14,10,26,12.20
2018,11,14,10,27,12.20
2018,11,14,10,28,12.20
2018,11,14,10,29,12.20
2018,11,14,10,30,12.20
2018,11,14,10,31,12.30
2018,11,14,10,32,12.30
2018,11,14,10,33,12.30
2018,11,14,10,34,12.40
2018,11,14,10,35,12.40
2018,11,14,10,36,12.50
2018,11,14,10,37,12.50
2018,11,14,10,38,12.60
2018,11,14,10,39,12.60
2018,11,14,10,40,12.60
2018,11,14,10,41,12.70
2018,11,14,10,42,12.70
2018,11,14,10,43,12.70
2018,11,14,10,44,12.70
2018,11,14,10,45,12.70
2018,11,14,10,46,12.80
2018,11,14,10,47,12.80
2018,11,14,10,48,12.80
2018,11,14,10,49,12.80
2018,11,14,10,50,12.80
2018,11,14,10,51,12.80
2018,11,14,10,52,12.80
2018,11,14,10,53,12.90
2018,11,14,10,54,12.90
2018,11,14,10,55,12.90
2018,11,14,10,56,13.00
2018,11,14,10,57,13.00
2018,11,14,10,58,13.10
2018,11,14,10,59,13.00
2018,11,14,11,00,13.00
2018,11,14,11,01,13.00
2018,11,14,11,02,13.00
2018,11,14,11,03,13.00
2018,11,14,11,04,13.00
2018,11,14,11,05,13.00
2018,11,14,11,06,13.00
2018,11,14,11,07,13.00
2018,11,14,11,08,13.00
2018,11,14,11,09,13.00
2018,11,14,11,10,13.00
2018,11,14,11,11,13.00
2018,11,14,11,12,12.90
2018,11,14,11,13,12.90
2018,11,14,11,14,13.00
2018,11,14,11,15,13.00
2018,11,14,11,16,13.00
2018,11,14,11,17,13.00
2018,11,14,11,18,13.00
2018,11,14,11,19,13.00
2018,11,14,11,20,13.00
2018,11,14,11,21,13.00
2018,11,14,11,22,13.00
2018,11,14,11,23,13.00
2018,11,14,11,24,13.10
2018,11,14,11,25,13.10
2018,11,14,11,26,13.10
2018,11,14,11,27,13.10
2018,11,14,11,28,13.10
2018,11,14,11,29,13.10
2018,11,14,11,30,13.10
2018,11,14,11,31,13.10
2018,11,14,11,32,13.10
2018,11,14,11,33,13.20
2018,11,14,11,34,13.20
2018,11,14,11,35,13.20
2018,11,14,11,36,13.20
2018,11,14,11,37,13.30
2018,11,14,11,38,13.30
2018,11,14,11,39,13.30
2018,11,14,11,40,13.30
2018,11,14,11,41,13.30
2018,11,14,11,42,13.40
2018,11,14,11,43,13.40
2018,11,14,11,44,13.40
2018,11,14,11,45,13.40
2018,11,14,11,46,13.50
2018,11,14,11,47,13.50
2018,11,14,11,48,13.60
2018,11,14,11,49,13.60
2018,11,14,11,50,13.60
2018,11,14,11,51,13.70
2018,11,14,11,52,13.70
2018,11,14,11,53,13.70
2018,11,14,11,54,13.70
2018,11,14,11,55,13.70
2018,11,14,11,56,13.80
2018,11,14,11,57,13.80
2018,11,14,11,58,13.80
2018,11,14,11,59,13.80
2018,11,14,12,00,13.80
2018,11,14,12,01,13.80
2018,11,14,12,02,13.80
2018,11,14,12,03,13.80
2018,11,14,12,04,13.80
2018,11,14,12,05,13.80
2018,11,14,12,06,13.80
2018,11,14,12,07,13.80
2018,11,14,12,08,13.70
2018,11,14,12,09,13.70
2018,11,14,12,10,13.70
2018,11,14,12,11,13.80
2018,11,14,12,12,13.80
2018,11,14,12,13,13.80
2018,11,14,12,14,13.90
2018,11,14,12,15,13.90
2018,11,14,12,16,13.90
2018,11,14,12,17,13.90
2018,11,14,12,18,14.00
2018,11,14,12,19,14.00
2018,11,14,12,20,14.00
2018,11,14,12,21,14.10
2018,11,14,12,22,14.10
2018,11,14,12,23,14.10
2018,11,14,12,24,14.20
2018,11,14,12,25,14.20
2018,11,14,12,26,14.10
2018,11,14,12,27,14.10
2018,11,14,12,28,14.10
2018,11,14,12,29,14.10
2018,11,14,12,30,14.10
2018,11,14,12,31,14.00
2018,11,14,12,32,14.00
2018,11,14,12,33,14.00
2018,11,14,12,34,14.00
2018,11,14,12,35,14.10
2018,11,14,12,36,14.10
2018,11,14,12,37,14.10
2018,11,14,12,38,14.20
2018,11,14,12,39,14.20
2018,11,14,12,40,14.20
2018,11,14,12,41,14.20
2018,11,14,12,42,14.20
2018,11,14,12,43,14.30
2018,11,14,12,44,14.30
2018,11,14,12,45,14.30
2018,11,14,12,46,14.30
2018,11,14,12,47,14.40
2018,11,14,12,48,14.40
2018,11,14,12,49,14.40
2018,11,14,12,50,14.40
2018,11,14,12,51,14.40
2018,11,14,12,52,14.50
2018,11,14,12,53,14.50
2018,11,14,12,54,14.50
2018,11,14,12,55,14.50
2018,11,14,12,56,14.50
2018,11,14,12,57,14.50
2018,11,14,12,58,14.50
2018,11,14,12,59,14.50
2018,11,14,13,00,14.50
2018,11,14,13,01,14.50
2018,11,14,13,02,14.40
2018,11,14,13,03,14.40
2018,11,14,13,04,14.40
2018,11,14,13,05,14.40
2018,11,14,13,06,14.40
2018,11,14,13,07,14.40
2018,11,14,13,08,14.40
2018,11,14,13,09,14.40
2018,11,14,13,10,14.40
2018,11,14,13,11,14.40
2018,11,14,13,12,14.40
2018,11,14,13,13,14.40
2018,11,14,13,14,14.40
2018,11,14,13,15,14.40
2018,11,14,13,16,14.40
2018,11,14,13,17,14.40
2018,11,14,13,18,14.30
2018,11,14,13,19,14.30
2018,11,14,13,20,14.30
2018,11,14,13,21,14.30
2018,11,14,13,22,14.30
2018,11,14,13,23,14.30
2018,11,14,13,24,14.30
2018,11,14,13,25,14.30
2018,11,14,13,26,14.30
2018,11,14,13,27,14.30
2018,11,14,13,28,14.30
2018,11,14,13,29,14.30
2018,11,14,13,30,14.30
2018,11,14,13,31,14.30
2018,11,14,13,32,14.30
2018,11,14,13,33,14.30
2018,11,14,13,34,14.30
2018,11,14,13,35,14.30
2018,11,14,13,36,14.20
2018,11,14,13,37,14.20
2018,11,14,13,38,14.20
2018,11,14,13,39,14.20
2018,11,14,13,40,14.10
2018,11,14,13,41,14.10
2018,11,14,13,42,14.10
2018,11,14,13,43,14.00
2018,11,14,13,44,14.00
2018,11,14,13,45,14.00
2018,11,14,13,46,14.00
2018,11,14,13,47,14.00
2018,11,14,13,48,13.90
2018,11,14,13,49,13.90
2018,11,14,13,50,13.90
2018,11,14,13,51,13.90
2018,11,14,13,52,13.90
2018,11,14,13,53,13.90
2018,11,14,13,54,13.90
2018,11,14,13,55,13.90
2018,11,14,13,56,13.90
2018,11,14,13,57,13.90
2018,11,14,13,58,14.00
2018,11,14,13,59,14.00
2018,11,14,14,00,14.00
2018,11,14,14,01,14.00
2018,11,14,14,02,14.00
2018,11,14,14,03,14.00
2018,11,14,14,04,14.00
2018,11,14,14,05,14.00
2018,11,14,14,06,14.10
2018,11,14,14,07,14.10
2018,11,14,14,08,14.10
2018,11,14,14,09,14.10
2018,11,14,14,10,14.10
2018,11,14,14,11,14.10
2018,11,14,14,12,14.10
2018,11,14,14,13,14.10
2018,11,14,14,14,14.10
2018,11,14,14,15,14.00
2018,11,14,14,16,14.00
2018,11,14,14,17,14.00
2018,11,14,14,18,14.00
2018,11,14,14,19,14.00
2018,11,14,14,20,13.90
2018,11,14,14,21,13.90
2018,11,14,14,22,13.90
2018,11,14,14,23,13.90
2018,11,14,14,24,13.90
2018,11,14,14,25,13.90
2018,11,14,14,26,13.90
2018,11,14,14,27,13.90
2018,11,14,14,28,13.90
2018,11,14,14,29,13.80
2018,11,14,14,30,13.80
2018,11,14,14,31,13.80
2018,11,14,14,32,13.80
2018,11,14,14,33,13.80
2018,11,14,14,34,13.80
2018,11,14,14,35,13.80
2018,11,14,14,36,13.80
2018,11,14,14,37,13.80
2018,11,14,14,38,13.80
2018,11,14,14,39,13.70
2018,11,14,14,40,13.70
2018,11,14,14,41,13.70
2018,11,14,14,42,13.70
2018,11,14,14,43,13.70
2018,11,14,14,44,13.70
2018,11,14,14,45,13.70
2018,11,14,14,46,13.70
2018,11,14,14,47,13.70
2018,11,14,14,48,13.60
2018,11,14,14,49,13.60
2018,11,14,14,50,13.60
2018,11,14,14,51,13.60
2018,11,14,14,52,13.50
2018,11,14,14,53,13.50
2018,11,14,14,54,13.50
2018,11,14,14,55,13.50
2018,11,14,14,56,13.40
2018,11,14,14,57,13.40
2018,11,14,14,58,13.40
2018,11,14,14,59,13.40
2018,11,14,15,00,13.40
2018,11,14,15,01,13.40
2018,11,14,15,02,13.40
2018,11,14,15,03,13.30
2018,11,14,15,04,13.30
2018,11,14,15,05,13.30
2018,11,14,15,06,13.30
2018,11,14,15,07,13.30
2018,11,14,15,08,13.30
2018,11,14,15,09,13.30
2018,11,14,15,10,13.30
2018,11,14,15,11,13.20
2018,11,14,15,12,13.20
2018,11,14,15,13,13.20
2018,11,14,15,14,13.20
2018,11,14,15,15,13.20
2018,11,14,15,16,13.20
2018,11,14,15,17,13.20
2018,11,14,15,18,13.20
2018,11,14,15,19,13.10
2018,11,14,15,20,13.10
2018,11,14,15,21,13.10
2018,11,14,15,22,13.10
2018,11,14,15,23,13.10
2018,11,14,15,24,13.00
2018,11,14,15,25,13.00
2018,11,14,15,26,13.00
2018,11,14,15,27,13.00
2018,11,14,15,28,13.00
2018,11,14,15,29,13.00
2018,11,14,15,30,12.90
2018,11,14,15,31,12.90
2018,11,14,15,32,12.90
2018,11,14,15,33,12.90
2018,11,14,15,34,12.80
2018,11,14,15,35,12.80
2018,11,14,15,36,12.80
2018,11,14,15,37,12.80
2018,11,14,15,38,12.70
2018,11,14,15,39,12.70
2018,11,14,15,40,12.70
2018,11,14,15,41,12.60
2018,11,14,15,42,12.60
2018,11,14,15,43,12.60
2018,11,14,15,44,12.50
2018,11,14,15,45,12.50
2018,11,14,15,46,12.50
2018,11,14,15,47,12.40
2018,11,14,15,48,12.40
2018,11,14,15,49,12.40
2018,11,14,15,50,12.40
2018,11,14,15,51,12.30
2018,11,14,15,52,12.30
2018,11,14,15,53,12.30
2018,11,14,15,54,12.30
2018,11,14,15,55,12.20
2018,11,14,15,56,12.20
2018,11,14,15,57,12.20
2018,11,14,15,58,12.20
2018,11,14,15,59,12.10
2018,11,14,16,00,12.10
2018,11,14,16,01,12.10
2018,11,14,16,02,12.10
2018,11,14,16,03,12.10
2018,11,14,16,04,12.10
2018,11,14,16,05,12.10
2018,11,14,16,06,12.10
2018,11,14,16,07,12.10
2018,11,14,16,08,12.00
2018,11,14,16,09,12.00
2018,11,14,16,10,12.00
2018,11,14,16,11,12.00
2018,11,14,16,12,12.00
2018,11,14,16,13,11.90
2018,11,14,16,14,11.90
2018,11,14,16,15,11.90
2018,11,14,16,16,11.90
2018,11,14,16,17,11.90
2018,11,14,16,18,11.80
2018,11,14,16,19,11.80
2018,11,14,16,20,11.80
2018,11,14,16,21,11.80
2018,11,14,16,22,11.70
2018,11,14,16,23,11.70
2018,11,14,16,24,11.70
2018,11,14,16,25,11.70
2018,11,14,16,26,11.70
2018,11,14,16,27,11.70
2018,11,14,16,28,11.70
2018,11,14,16,29,11.60
2018,11,14,16,30,11.60
2018,11,14,16,31,11.60
2018,11,14,16,32,11.60
2018,11,14,16,33,11.60
2018,11,14,16,34,11.60
2018,11,14,16,35,11.50
2018,11,14,16,36,11.50
2018,11,14,16,37,11.50
2018,11,14,16,38,11.40
2018,11,14,16,39,11.40
2018,11,14,16,40,11.40
2018,11,14,16,41,11.40
2018,11,14,16,42,11.30
2018,11,14,16,43,11.30
2018,11,14,16,44,11.30
2018,11,14,16,45,11.20
2018,11,14,16,46,11.20
2018,11,14,16,47,11.20
2018,11,14,16,48,11.10
2018,11,14,16,49,11.10
2018,11,14,16,50,11.10
2018,11,14,16,51,11.00
2018,11,14,16,52,11.00
2018,11,14,16,53,10.90
2018,11,14,16,54,10.90
2018,11,14,16,55,10.90
2018,11,14,16,56,10.80
2018,11,14,16,57,10.80
2018,11,14,16,58,10.80
2018,11,14,16,59,10.80
2018,11,14,17,00,10.70
2018,11,14,17,01,10.70
2018,11,14,17,02,10.70
2018,11,14,17,03,10.60
2018,11,14,17,04,10.60
2018,11,14,17,05,10.60
2018,11,14,17,06,10.50
2018,11,14,17,07,10.50
2018,11,14,17,08,10.50
2018,11,14,17,09,10.50
2018,11,14,17,10,10.40
2018,11,14,17,11,10.40
2018,11,14,17,12,10.40
2018,11,14,17,13,10.40
2018,11,14,17,14,10.40
2018,11,14,17,15,10.40
2018,11,14,17,16,10.30
2018,11,14,17,17,10.30
2018,11,14,17,18,10.30
2018,11,14,17,19,10.30
2018,11,14,17,20,10.30
2018,11,14,17,21,10.30
2018,11,14,17,22,10.30
2018,11,14,17,23,10.30
2018,11,14,17,24,10.30
2018,11,14,17,25,10.30
2018,11,14,17,26,10.30
2018,11,14,17,27,10.20
2018,11,14,17,28,10.20
2018,11,14,17,29,10.20
2018,11,14,17,30,10.20
2018,11,14,17,31,10.20
2018,11,14,17,32,10.10
2018,11,14,17,33,10.10
2018,11,14,17,34,10.10
2018,11,14,17,35,10.00
2018,11,14,17,36,10.00
2018,11,14,17,37,10.00
2018,11,14,17,38,10.00
2018,11,14,17,39,9.90
2018,11,14,17,40,9.90
2018,11,14,17,41,9.90
2018,11,14,17,42,9.90